Time,TemperatureF,DewpointF,PressureIn,WindDirection,WindDirectionDegrees,WindSpeedMPH,WindSpeedGustMPH,Humidity,HourlyPrecipIn,Conditions,Clouds,dailyrainin,SoftwareType,DateUTC
2013-01-21 00:12:00,31.0,11.0,30.03,West,274,3.0,8.0,44,0.00,,,0.00,weatherlink.com 1.10,2013-01-21 05:12:00,
2013-01-21 00:27:00,30.6,11.0,30.03,West,279,11.0,15.0,44,0.00,,,0.00,weatherlink.com 1.10,2013-01-21 05:27:00,
2013-01-21 00:43:00,30.5,11.0,30.03,WNW,287,5.0,10.0,44,0.00,,,0.00,weatherlink.com 1.10,2013-01-21 05:43:00,
2013-01-21 00:58:00,30.4,11.0,30.04,WNW,283,4.0,8.0,45,0.00,,,0.00,weatherlink.com 1.10,2013-01-21 05:58:00,
2013-01-21 01:13:00,30.1,11.0,30.04,ESE,120,2.0,11.0,45,0.00,,,0.00,weatherlink.com 1.10,2013-01-21 06:13:00,
2013-01-21 01:28:00,29.8,10.0,30.04,WNW,283,5.0,11.0,44,0.00,,,0.00,weatherlink.com 1.10,2013-01-21 06:28:00,
2013-01-21 01:43:00,29.7,9.0,30.05,WNW,284,5.0,10.0,42,0.00,,,0.00,weatherlink.com 1.10,2013-01-21 06:43:00,
2013-01-21 01:58:00,29.4,9.0,30.06,WSW,250,3.0,12.0,42,0.00,,,0.00,weatherlink.com 1.10,2013-01-21 06:58:00,
2013-01-21 02:13:00,29.3,9.0,30.06,West,274,3.0,8.0,42,0.00,,,0.00,weatherlink.com 1.10,2013-01-21 07:13:00,
2013-01-21 02:28:00,29.1,9.0,30.06,West,274,3.0,11.0,42,0.00,,,0.00,weatherlink.com 1.10,2013-01-21 07:28:00,
2013-01-21 02:43:00,28.9,8.0,30.06,NW,304,5.0,10.0,41,0.00,,,0.00,weatherlink.com 1.10,2013-01-21 07:43:00,
2013-01-21 02:58:00,28.9,8.0,30.07,WNW,290,6.0,8.0,42,0.00,,,0.00,weatherlink.com 1.10,2013-01-21 07:58:00,
2013-01-21 03:13:00,28.7,8.0,30.07,WSW,257,4.0,13.0,42,0.00,,,0.00,weatherlink.com 1.10,2013-01-21 08:13:00,
2013-01-21 03:28:00,28.8,9.0,30.07,WNW,302,6.0,11.0,43,0.00,,,0.00,weatherlink.com 1.10,2013-01-21 08:28:00,
2013-01-21 03:43:00,28.5,8.0,30.07,NW,316,2.0,10.0,43,0.00,,,0.00,weatherlink.com 1.10,2013-01-21 08:43:00,
2013-01-21 03:58:00,28.4,9.0,30.07,West,281,1.0,9.0,44,0.00,,,0.00,weatherlink.com 1.10,2013-01-21 08:58:00,
2013-01-21 04:13:00,28.3,9.0,30.07,West,262,0.0,9.0,45,0.00,,,0.00,weatherlink.com 1.10,2013-01-21 09:13:00,
2013-01-21 04:28:00,28.3,9.0,30.06,WNW,284,6.0,8.0,45,0.00,,,0.00,weatherlink.com 1.10,2013-01-21 09:28:00,
2013-01-21 04:43:00,28.3,9.0,30.06,NNW,328,3.0,8.0,44,0.00,,,0.00,weatherlink.com 1.10,2013-01-21 09:43:00,
2013-01-21 04:58:00,28.3,8.0,30.07,WNW,296,4.0,10.0,43,0.00,,,0.00,weatherlink.com 1.10,2013-01-21 09:58:00,
2013-01-21 05:13:00,28.2,9.0,30.07,West,266,0.0,7.0,44,0.00,,,0.00,weatherlink.com 1.10,2013-01-21 10:13:00,
2013-01-21 05:28:00,28.1,9.0,30.07,West,262,5.0,8.0,44,0.00,,,0.00,weatherlink.com 1.10,2013-01-21 10:28:00,
2013-01-21 05:43:00,28.1,9.0,30.07,West,279,2.0,8.0,45,0.00,,,0.00,weatherlink.com 1.10,2013-01-21 10:43:00,
2013-01-21 05:58:00,28.2,9.0,30.07,West,281,0.0,5.0,45,0.00,,,0.00,weatherlink.com 1.10,2013-01-21 10:58:00,
2013-01-21 06:13:00,28.1,10.0,30.07,NW,322,4.0,7.0,46,0.00,,,0.00,weatherlink.com 1.10,2013-01-21 11:13:00,
2013-01-21 06:28:00,28.1,10.0,30.07,WNW,302,1.0,6.0,47,0.00,,,0.00,weatherlink.com 1.10,2013-01-21 11:28:00,
2013-01-21 06:43:00,28.2,10.0,30.07,WNW,299,3.0,7.0,47,0.00,,,0.00,weatherlink.com 1.10,2013-01-21 11:43:00,
2013-01-21 06:58:00,28.1,11.0,30.07,West,271,5.0,6.0,49,0.00,,,0.00,weatherlink.com 1.10,2013-01-21 11:58:00,
2013-01-21 07:13:00,27.8,11.0,30.08,NW,323,2.0,6.0,49,0.00,,,0.00,weatherlink.com 1.10,2013-01-21 12:13:00,
2013-01-21 07:28:00,27.8,10.0,30.08,WNW,301,3.0,7.0,48,0.00,,,0.00,weatherlink.com 1.10,2013-01-21 12:28:00,
2013-01-21 07:43:00,27.7,10.0,30.07,NW,312,2.0,7.0,48,0.00,,,0.00,weatherlink.com 1.10,2013-01-21 12:43:00,
2013-01-21 07:58:00,27.7,10.0,30.07,West,269,4.0,5.0,48,0.00,,,0.00,weatherlink.com 1.10,2013-01-21 12:58:00,
2013-01-21 08:13:00,27.9,11.0,30.07,SW,219,0.0,3.0,49,0.00,,,0.00,weatherlink.com 1.10,2013-01-21 13:13:00,
2013-01-21 08:28:00,27.9,10.0,30.08,West,262,3.0,6.0,47,0.00,,,0.00,weatherlink.com 1.10,2013-01-21 13:28:00,
2013-01-21 08:43:00,28.7,11.0,30.08,WNW,300,3.0,5.0,48,0.00,,,0.00,weatherlink.com 1.10,2013-01-21 13:43:00,
2013-01-21 08:58:00,28.9,11.0,30.08,WNW,299,1.0,3.0,47,0.00,,,0.00,weatherlink.com 1.10,2013-01-21 13:58:00,
2013-01-21 09:13:00,29.1,10.0,30.08,ENE,65,1.0,4.0,45,0.00,,,0.00,weatherlink.com 1.10,2013-01-21 14:13:00,
2013-01-21 09:29:00,29.3,10.0,30.08,WSW,256,0.0,3.0,45,0.00,,,0.00,weatherlink.com 1.10,2013-01-21 14:29:00,
2013-01-21 09:43:00,29.9,11.0,30.08,SSE,165,0.0,3.0,45,0.00,,,0.00,weatherlink.com 1.10,2013-01-21 14:43:00,
2013-01-21 09:58:00,29.8,10.0,30.08,SSW,211,0.0,4.0,44,0.00,,,0.00,weatherlink.com 1.10,2013-01-21 14:58:00,
2013-01-21 10:13:00,29.8,10.0,30.08,SE,131,0.0,3.0,44,0.00,,,0.00,weatherlink.com 1.10,2013-01-21 15:13:00,
2013-01-21 10:28:00,29.9,11.0,30.07,SE,127,0.0,4.0,45,0.00,,,0.00,weatherlink.com 1.10,2013-01-21 15:28:00,
2013-01-21 10:43:00,30.2,10.0,30.06,SSW,198,0.0,3.0,43,0.00,,,0.00,weatherlink.com 1.10,2013-01-21 15:43:00,
2013-01-21 10:58:00,30.6,11.0,30.05,South,175,1.0,3.0,44,0.00,,,0.00,weatherlink.com 1.10,2013-01-21 15:58:00,
2013-01-21 11:13:00,31.1,11.0,30.04,WNW,284,0.0,6.0,43,0.00,,,0.00,weatherlink.com 1.10,2013-01-21 16:13:00,
2013-01-21 11:28:00,31.6,11.0,30.03,WSW,244,0.0,5.0,42,0.00,,,0.00,weatherlink.com 1.10,2013-01-21 16:28:00,
2013-01-21 11:43:00,31.6,11.0,30.01,West,278,3.0,7.0,42,0.00,,,0.00,weatherlink.com 1.10,2013-01-21 16:43:00,
2013-01-21 11:58:00,31.9,12.0,30.00,SSE,155,3.0,4.0,43,0.00,,,0.00,weatherlink.com 1.10,2013-01-21 16:58:00,
2013-01-21 12:14:00,32.1,13.0,29.99,NW,311,3.0,7.0,45,0.00,,,0.00,weatherlink.com 1.10,2013-01-21 17:14:00,
2013-01-21 12:29:00,32.3,13.0,29.98,SSW,211,1.0,7.0,45,0.00,,,0.00,weatherlink.com 1.10,2013-01-21 17:29:00,
2013-01-21 12:44:00,32.5,13.0,29.98,SW,226,2.0,7.0,45,0.00,,,0.00,weatherlink.com 1.10,2013-01-21 17:44:00,
2013-01-21 12:59:00,32.3,12.0,29.96,West,266,1.0,5.0,43,0.00,,,0.00,weatherlink.com 1.10,2013-01-21 17:59:00,
2013-01-21 13:14:00,32.2,12.0,29.96,WSW,244,2.0,6.0,43,0.00,,,0.00,weatherlink.com 1.10,2013-01-21 18:14:00,
2013-01-21 13:29:00,32.0,12.0,29.96,East,94,0.0,8.0,44,0.00,,,0.00,weatherlink.com 1.10,2013-01-21 18:29:00,
2013-01-21 13:44:00,32.3,12.0,29.96,ESE,117,4.0,10.0,43,0.00,,,0.00,weatherlink.com 1.10,2013-01-21 18:44:00,
2013-01-21 13:59:00,32.7,13.0,29.95,WNW,283,1.0,6.0,44,0.00,,,0.00,weatherlink.com 1.10,2013-01-21 18:59:00,
2013-01-21 14:14:00,32.5,13.0,29.94,WNW,294,0.0,8.0,44,0.00,,,0.00,weatherlink.com 1.10,2013-01-21 19:14:00,
2013-01-21 14:29:00,32.6,13.0,29.94,SE,144,3.0,6.0,45,0.00,,,0.00,weatherlink.com 1.10,2013-01-21 19:29:00,
2013-01-21 14:44:00,32.5,13.0,29.93,NW,322,2.0,7.0,45,0.00,,,0.00,weatherlink.com 1.10,2013-01-21 19:44:00,
2013-01-21 14:59:00,32.1,13.0,29.93,East,86,3.0,8.0,46,0.00,,,0.00,weatherlink.com 1.10,2013-01-21 19:59:00,
2013-01-21 15:14:00,32.1,13.0,29.92,South,177,4.0,6.0,46,0.00,,,0.00,weatherlink.com 1.10,2013-01-21 20:14:00,
2013-01-21 15:29:00,32.0,13.0,29.91,WNW,302,0.0,5.0,46,0.00,,,0.00,weatherlink.com 1.10,2013-01-21 20:29:00,
2013-01-21 15:44:00,31.9,14.0,29.90,West,267,0.0,6.0,47,0.00,,,0.00,weatherlink.com 1.10,2013-01-21 20:44:00,
2013-01-21 15:59:00,32.0,14.0,29.89,SSW,205,2.0,6.0,48,0.00,,,0.00,weatherlink.com 1.10,2013-01-21 20:59:00,
2013-01-21 16:14:00,31.6,15.0,29.89,South,189,0.0,5.0,51,0.00,,,0.00,weatherlink.com 1.10,2013-01-21 21:14:00,
2013-01-21 16:29:00,31.6,16.0,29.88,WNW,296,1.0,5.0,52,0.00,,,0.00,weatherlink.com 1.10,2013-01-21 21:29:00,
2013-01-21 16:44:00,31.6,16.0,29.88,SSW,210,2.0,4.0,53,0.00,,,0.00,weatherlink.com 1.10,2013-01-21 21:44:00,
2013-01-21 16:59:00,31.6,16.0,29.88,West,268,2.0,3.0,53,0.00,,,0.00,weatherlink.com 1.10,2013-01-21 21:59:00,
2013-01-21 17:14:00,31.6,17.0,29.88,WNW,283,1.0,4.0,54,0.00,,,0.00,weatherlink.com 1.10,2013-01-21 22:14:00,
2013-01-21 17:29:00,31.7,17.0,29.88,SSE,158,0.0,4.0,54,0.00,,,0.00,weatherlink.com 1.10,2013-01-21 22:29:00,
2013-01-21 17:44:00,31.7,17.0,29.88,South,175,0.0,3.0,54,0.00,,,0.00,weatherlink.com 1.10,2013-01-21 22:44:00,
2013-01-21 17:59:00,31.8,17.0,29.88,SSW,207,1.0,3.0,54,0.00,,,0.00,weatherlink.com 1.10,2013-01-21 22:59:00,
2013-01-21 18:14:00,32.0,17.0,29.88,West,265,2.0,4.0,54,0.00,,,0.00,weatherlink.com 1.10,2013-01-21 23:14:00,
2013-01-21 18:29:00,32.1,17.0,29.88,SW,221,0.0,3.0,54,0.00,,,0.00,weatherlink.com 1.10,2013-01-21 23:29:00,
2013-01-21 18:44:00,32.1,17.0,29.87,WNW,290,0.0,4.0,55,0.00,,,0.00,weatherlink.com 1.10,2013-01-21 23:44:00,
2013-01-21 18:59:00,32.3,18.0,29.86,WNW,290,1.0,1.0,55,0.00,,,0.00,weatherlink.com 1.10,2013-01-21 23:59:00,
2013-01-21 19:14:00,32.4,18.0,29.85,ENE,72,1.0,3.0,56,0.00,,,0.00,weatherlink.com 1.10,2013-01-22 00:14:00,
2013-01-21 19:29:00,32.5,18.0,29.86,West,281,2.0,3.0,56,0.00,,,0.00,weatherlink.com 1.10,2013-01-22 00:29:00,
2013-01-21 19:44:00,32.8,18.0,29.86,WNW,283,4.0,6.0,55,0.00,,,0.00,weatherlink.com 1.10,2013-01-22 00:44:00,
2013-01-21 19:59:00,32.4,19.0,29.86,NW,326,2.0,8.0,57,0.00,,,0.00,weatherlink.com 1.10,2013-01-22 00:59:00,
2013-01-21 20:14:00,32.6,17.0,29.86,WNW,287,7.0,8.0,53,0.00,,,0.00,weatherlink.com 1.10,2013-01-22 01:14:00,
2013-01-21 20:29:00,32.0,16.0,29.86,NW,323,0.0,9.0,53,0.00,,,0.00,weatherlink.com 1.10,2013-01-22 01:29:00,
2013-01-21 20:44:00,31.2,18.0,29.86,WSW,242,2.0,7.0,58,0.00,,,0.00,weatherlink.com 1.10,2013-01-22 01:44:00,
2013-01-21 20:59:00,30.8,18.0,29.86,WNW,302,3.0,7.0,60,0.00,,,0.00,weatherlink.com 1.10,2013-01-22 01:59:00,
2013-01-21 21:14:00,30.6,19.0,29.85,West,269,1.0,8.0,62,0.00,,,0.00,weatherlink.com 1.10,2013-01-22 02:14:00,
2013-01-21 21:29:00,30.7,19.0,29.85,West,278,4.0,5.0,61,0.00,,,0.00,weatherlink.com 1.10,2013-01-22 02:29:00,
2013-01-21 21:44:00,30.5,18.0,29.84,NW,323,2.0,10.0,60,0.00,,,0.00,weatherlink.com 1.10,2013-01-22 02:44:00,
2013-01-21 21:59:00,30.5,18.0,29.84,West,274,4.0,11.0,59,0.00,,,0.00,weatherlink.com 1.10,2013-01-22 02:59:00,
2013-01-21 22:14:00,30.8,17.0,29.83,NW,326,8.0,12.0,58,0.00,,,0.00,weatherlink.com 1.10,2013-01-22 03:14:00,
2013-01-21 22:30:00,30.7,18.0,29.83,WNW,284,4.0,10.0,59,0.00,,,0.00,weatherlink.com 1.10,2013-01-22 03:30:00,
2013-01-21 22:45:00,30.2,18.0,29.83,NW,309,6.0,12.0,60,0.00,,,0.00,weatherlink.com 1.10,2013-01-22 03:45:00,
2013-01-21 23:00:00,29.7,18.0,29.83,WNW,284,6.0,15.0,61,0.00,,,0.00,weatherlink.com 1.10,2013-01-22 04:00:00,
2013-01-21 23:15:00,29.4,18.0,29.83,West,271,5.0,15.0,62,0.00,,,0.00,weatherlink.com 1.10,2013-01-22 04:15:00,
2013-01-21 23:30:00,29.3,18.0,29.82,West,281,4.0,10.0,62,0.00,,,0.00,weatherlink.com 1.10,2013-01-22 04:30:00,
2013-01-21 23:45:00,29.0,17.0,29.83,West,262,8.0,10.0,62,0.00,,,0.00,weatherlink.com 1.10,2013-01-22 04:45:00,